Location: Brabourne
(51.1333°N, 1.0000°E)
Time: 11:44:28
(UTC+00:00)

Cosmos 1825 Rocket - Pass Details

Date: 20 October 2021
Orbit: 603 x 631 km, 82.5° (Epoch: 26 November)

Event Time Altitude Azimuth Distance (km) Brightness Sun altitude
Rises 18:36:44 0° 357° (N) 2,885 7.1 -17.0°
Reaches altitude 10° 18:39:12 10° 8° (N) 1,972 6.1 -17.4°
Enters shadow 18:42:20 28° 52° (NE) 1,157 4.5 -17.9°
